EW2356 Weather Reports


Display with metric or nautical units.
time (UTC)temp
F
wind
direction
speed
MPH
gust
MPH
rain 1hr
in
rain 24hr
in
rain mn
in
humidity
%
barometer
mb
20260504191520 70 220 3.0 13.0 0.01 0.01 0.01 64 1002.7
20260504190018 72 225 4.0 10.0 0.01 0.01 0.01 59 1003.4
20260504184518 73 223 4.0 10.0 0.00 0.00 0.00 56 1003.5
20260504183016 72 256 4.0 0.0 0.00 0.00 0.00 56 1003.7
20260504181514 72 261 1.0 4.0 0.00 0.00 0.00 59 1003.9
20260504180056 71 264 0.0 1.0 0.00 0.00 0.00 64 1003.9
20260504174555 71 246 2.0 5.0 0.00 0.00 0.00 59 1004.0
20260504173036 73 238 4.0 11.0 0.00 0.00 0.00 57 1004.2
20260504171542 73 51 0.0 4.0 0.00 0.00 0.00 58 1004.3
20260504081530 63 270 0.0 6.0 0.00 0.00 0.00 61 1006.8
20260504044540 64 239 4.0 8.0 0.00 0.00 0.00 59 1008.0
20260504043033 65 235 1.0 6.0 0.00 0.00 0.00 57 1008.2
20260504041514 66 230 1.0 7.0 0.00 0.00 0.00 57 1008.4
20260504040019 66 231 3.0 5.0 0.00 0.00 0.00 56 1008.5
20260504034613 66 239 1.0 6.0 0.00 0.00 0.00 55 1008.6
20260504033055 67 225 1.0 6.0 0.00 0.00 0.00 54 1008.6
20260504031538 68 237 2.0 10.0 0.00 0.00 0.00 53 1009.2
20260504030042 67 261 4.0 7.0 0.00 0.00 0.00 54 1009.2
20260504024520 67 257 1.0 4.0 0.00 0.00 0.00 55 1008.8
20260504023018 67 243 1.0 4.0 0.00 0.00 0.00 54 1008.7
20260504021507 68 237 1.0 3.0 0.00 0.00 0.00 53 1008.6
20260504020012 68 258 1.0 2.0 0.00 0.00 0.00 52 1008.5
20260504014507 69 230 3.0 5.0 0.00 0.00 0.00 51 1008.4
20260504013004 69 241 1.0 4.0 0.00 0.00 0.00 50 1008.3
20260504011503 70 241 1.0 4.0 0.00 0.00 0.00 48 1008.4
20260504010002 71 234 2.0 5.0 0.00 0.00 0.00 47 1008.2
20260504004502 72 233 2.0 5.0 0.00 0.00 0.00 46 1008.3
20260504003001 73 235 1.0 5.0 0.00 0.00 0.00 44 1008.2
20260504001543 74 227 1.0 5.0 0.00 0.00 0.00 43 1008.2
20260504000046 75 259 4.0 7.0 0.00 0.00 0.00 41 1008.2
20260503234537 76 271 6.0 10.0 0.00 0.00 0.00 39 1008.2
20260503233021 77 258 6.0 12.0 0.00 0.00 0.00 38 1008.4
20260503231502 77 257 7.0 12.0 0.00 0.00 0.00 37 1008.4
20260503230101 77 239 9.0 16.0 0.00 0.00 0.00 36 1008.5
20260503224541 77 254 10.0 15.0 0.00 0.00 0.00 35 1008.7
20260503223041 77 260 9.0 16.0 0.00 0.00 0.00 35 1008.9
20260503221523 78 251 6.0 14.0 0.00 0.00 0.00 34 1008.8
20260503220037 77 260 9.0 18.0 0.00 0.00 0.00 34 1008.9
20260503214558 77 265 10.0 19.0 0.00 0.00 0.00 34 1009.0
20260503213110 77 270 5.0 21.0 0.00 0.00 0.00 34 1009.1
20260503211537 77 248 9.0 23.0 0.00 0.00 0.00 33 1009.4
20260503210038 76 222 9.0 19.0 0.00 0.00 0.00 33 1009.5
20260503204515 75 262 11.0 30.0 0.00 0.00 0.00 32 1009.8
20260503203026 75 272 10.0 18.0 0.00 0.00 0.00 32 1009.9
20260503201553 75 250 13.0 21.0 0.00 0.00 0.00 33 1010.4
20260503200055 74 243 12.0 24.0 0.00 0.00 0.00 33 1010.8
20260503194529 74 209 11.0 23.0 0.00 0.00 0.00 33 1011.3
20260503193032 74 228 10.0 20.0 0.00 0.00 0.00 33 1011.7